Skip Page Navigation
NASA JPL Caltech
NASA Logo - Jet Propulsion Laboratory + View the NASA Portal
+ Center for Near-Earth Object Studies
JPL Home Earth Solar System Stars & Galaxies Technology
JPL Solar System Dynamics
BODIES ORBITS EPHEMERIDES TOOLS PHYSICAL DATA DISCOVERY FAQ SITE MAP

Significant website upgrade scheduled for September 27. More details available here.

JPL Small-Body Database Browser
Search: [ help ]  
90414 Karpov (2003 YP110)
Classification: Main-belt Asteroid          SPK-ID: 2090414
Ephemeris | Orbit Diagram | Orbital Elements | Mission Design | Physical Parameters | Discovery Circumstances ]

[ show orbit diagram ]
Orbital Elements at Epoch 2459396.5 (2021-Jul-01.0) TDB
Reference: JPL 19 (heliocentric ecliptic J2000)
 Element Value Uncertainty (1-sigma)   Units 
e .06346854294037013 5.9827e-08  
a 2.387627229468876 1.2687e-08 au
q 2.236088008129734 1.429e-07 au
i 6.345508414896948 7.5345e-06 deg
node 336.6289075969088 4.3297e-05 deg
peri 157.2105289629328 6.3546e-05 deg
M 239.7311835918365 4.6611e-05 deg
tp 2459846.693010223558
(2022-Sep-24.19301022)
0.00017513 TDB
period 1347.560311315079
3.69
1.0741e-05
2.941e-08
d
yr
n .2671494529611646 2.1294e-09 deg/d
Q 2.539166450808018 1.3493e-08 au
  Orbit Determination Parameters
   # obs. used (total)      511  
   data-arc span      10878 days (29.78 yr)  
   first obs. used      1991-09-07  
   last obs. used      2021-06-19  
   planetary ephem.      DE441  
   SB-pert. ephem.      SB441-N16  
   condition code      0  
   norm. resid. RMS      .59814  
   source      ORB  
   producer      Otto Matic  
   solution date      2021-Aug-25 18:16:16  

Additional Information
 Earth MOID = 1.2517 au 
 Jupiter MOID = 2.46785 au 
 T_jup = 3.523 
[ show covariance matrix ]

Ephemeris | Orbit Diagram | Orbital Elements | Mission Design | Physical Parameters | Discovery Circumstances ]

Physical Parameter Table
Parameter Symbol Value Units Sigma Reference Notes
absolute magnitude H 15.98   n/a E2021B10  

90414 Karpov           Discovered 2003 Dec. 19 by R. Ferrando at Pla D´Arguines.
Anatoly Karpov (b. 1951) learned chess from his father at the age of four and was soon able to beat older players. He was world chess champion from 1975 to 1985 and from 1993 to 1999. He has won more tournaments than any other player in the history of the game.
NOTE: some special characters may not display properly (any characters within {} are an attempt to place the proper accent above a character)
Reference: 20050721/MPCPages.arcLast Updated: 2005-07-21

Alternate Designations
 2003 YP110 = 2002 RV203 
Ephemeris | Orbit Diagram | Orbital Elements | Mission Design | Physical Parameters | Discovery Circumstances ]
ABOUT SSD CREDITS/AWARDS PRIVACY/COPYRIGHT GLOSSARY LINKS
FirstGov 2021-Sep-23 14:57 UT
(server date/time)  
NASA Home Page
Site Manager:   Ryan S. Park
Webmaster  Alan B. Chamberlin